Weather History for Weslaco, TX

Change the Weather History Date:

Wednesday, April 18, 2012

  Actual Average (KMFE) Record (KMFE)
Temperature  
Mean Temperature 73 °F 77 °F  
Max Temperature 86 °F 87 °F 98 °F (1953)
Min Temperature 60 °F 67 °F 53 °F (2001)
Degree Days  
Heating Degree Days 0 0  
Month to date heating degree days 3  
Since 1 July heating degree days 574  
Cooling Degree Days 8 12  
Month to date cooling degree days 197  
Year to date cooling degree days 574  
Growing Degree Days 23 (Base 50)    
Moisture  
Dew Point 58 °F    
Average Humidity 63    
Maximum Humidity 100    
Minimum Humidity 31    
Precipitation  
Precipitation 0.00 in 0.05 in 1.49 in (1997)
Month to date precipitation 0.65  
Year to date precipitation 3.84  
Sea Level Pressure  
Sea Level Pressure 30.07 in    
Wind  
Wind Speed 3 mph (East)    
Max Wind Speed 15 mph    
Max Gust Speed 20 mph    
Visibility 8 miles    
Events Fog    
T = Trace of Precipitation, MM = Missing Value Source: NWS Daily Summary

Daily Weather History Graph

Daily Weather History Graph

Search for Another Location

Airport:

Trip Planner

Search our weather history database for the weather conditions in past years. The results will help you decide how hot, cold, wet, or windy it might be!

Date:

Astronomy

Apr. 18, 2012 Rise Set
Actual Time 7:05 AM CDT 7:57 PM CDT
Civil Twilight 6:41 AM CDT 8:21 PM CDT
Nautical Twilight 6:13 AM CDT 8:49 PM CDT
Astronomical Twilight 5:44 AM CDT 9:17 PM CDT
Moon 5:19 AM CDT (4/18) 5:58 PM CDT (4/18)
Length of Visible Light 13h 39m
Length of Day
12h 52m
Waning Crescent, 6% of the Moon is Illuminated
Apr 18
Waning Crescent
Apr 21
New
Apr 29
First Quarter
May 5
Full
May 12
Last Quarter

Hourly Weather History & Observations

Time (CDT) Temp. Heat Index Dew Point Humidity Pressure Visibility Wind Dir Wind Speed Gust Speed Precip Events Conditions
12:15 AM 68.0 °F - 62.6 °F 83% 30.14 in 10.0 mi Calm Calm - N/A   Clear
12:35 AM 68.0 °F - 62.6 °F 83% 30.14 in 10.0 mi Calm Calm - N/A   Clear
12:55 AM 64.4 °F - 62.6 °F 94% 30.13 in 10.0 mi Calm Calm - N/A   Clear
1:15 AM 64.4 °F - 62.6 °F 94% 30.13 in 7.0 mi Calm Calm - N/A   Clear
1:35 AM 64.4 °F - 62.6 °F 94% 30.12 in 5.0 mi Calm Calm - N/A   Clear
1:55 AM 64.4 °F - 62.6 °F 94% 30.12 in 5.0 mi NNE 3.5 mph - N/A   Clear
2:15 AM 62.6 °F - 60.8 °F 94% 30.11 in 5.0 mi Calm Calm - N/A   Clear
2:35 AM 64.4 °F - 62.6 °F 94% 30.11 in 5.0 mi Calm Calm - N/A   Clear
2:55 AM 62.6 °F - 60.8 °F 94% 30.10 in 4.0 mi Calm Calm - N/A   Clear
3:15 AM 62.6 °F - 60.8 °F 94% 30.10 in 3.0 mi ENE 3.5 mph - N/A   Clear
3:35 AM 64.4 °F - 60.8 °F 88% 30.09 in 5.0 mi Calm Calm - N/A   Clear
4:35 AM 64.4 °F - 62.6 °F 94% 30.09 in 5.0 mi ENE 5.8 mph - N/A   Clear
4:55 AM 64.4 °F - 62.6 °F 94% 30.09 in 5.0 mi NE 4.6 mph - N/A   Clear
5:15 AM 64.4 °F - 62.6 °F 94% 30.08 in 5.0 mi ENE 3.5 mph - N/A   Clear
5:35 AM 64.4 °F - 62.6 °F 94% 30.08 in 5.0 mi Calm Calm - N/A   Clear
5:55 AM 64.4 °F - 62.6 °F 94% 30.09 in 5.0 mi Calm Calm - N/A   Clear
7:15 AM 60.8 °F - 60.8 °F 100% 30.11 in 1.2 mi Calm Calm - N/A   Scattered Clouds
7:35 AM 62.6 °F - 60.8 °F 94% 30.12 in 0.2 mi Calm Calm - N/A Fog Fog
7:55 AM 62.6 °F - 62.6 °F 100% 30.13 in 2.0 mi Calm Calm - N/A   Mostly Cloudy
8:15 AM 64.4 °F - 64.4 °F 100% 30.13 in 4.0 mi Calm Calm - N/A   Scattered Clouds
8:35 AM 68.0 °F - 64.4 °F 88% 30.14 in 5.0 mi Calm Calm - N/A   Clear
8:55 AM 69.8 °F - 64.4 °F 83% 30.14 in 7.0 mi Calm Calm - N/A   Clear
9:15 AM 73.4 °F - 64.4 °F 73% 30.14 in 7.0 mi East 5.8 mph - N/A   Clear
9:35 AM 75.2 °F - 64.4 °F 69% 30.15 in 10.0 mi ESE 6.9 mph - N/A   Clear
9:55 AM 77.0 °F - 62.6 °F 61% 30.15 in 10.0 mi East 5.8 mph - N/A   Clear
10:15 AM 77.0 °F - 60.8 °F 57% 30.15 in 10.0 mi East 3.5 mph - N/A   Scattered Clouds
10:35 AM 78.8 °F - 60.8 °F 54% 30.15 in 10.0 mi East 6.9 mph - N/A   Mostly Cloudy
10:55 AM 80.6 °F 81.5 °F 60.8 °F 51% 30.15 in 7.0 mi NE 5.8 mph - N/A   Scattered Clouds
11:15 AM 80.6 °F 81.1 °F 59.0 °F 48% 30.14 in 10.0 mi East 6.9 mph - N/A   Scattered Clouds
11:55 AM 82.4 °F 82.5 °F 59.0 °F 45% 30.14 in 10.0 mi NE 6.9 mph - N/A   Scattered Clouds
12:15 PM 82.4 °F 81.7 °F 55.4 °F 39% 30.13 in 10.0 mi Calm Calm - N/A   Scattered Clouds
12:35 PM 82.4 °F 82.0 °F 57.2 °F 42% 30.12 in 7.0 mi NNE 4.6 mph - N/A   Scattered Clouds
12:55 PM 84.2 °F 83.5 °F 57.2 °F 40% 30.11 in 10.0 mi East 9.2 mph - N/A   Scattered Clouds
1:15 PM 84.2 °F 82.8 °F 53.6 °F 35% 30.10 in 10.0 mi ENE 6.9 mph - N/A   Scattered Clouds
1:35 PM 86.0 °F 84.2 °F 53.6 °F 33% 30.09 in 10.0 mi Calm Calm - N/A   Clear
1:55 PM 86.0 °F 84.2 °F 53.6 °F 33% 30.08 in 10.0 mi NNE 5.8 mph - N/A   Clear
2:15 PM 84.2 °F - 51.8 °F 33% 30.08 in 10.0 mi East 5.8 mph - N/A   Scattered Clouds
2:35 PM 86.0 °F - 51.8 °F 31% 30.07 in 10.0 mi East 8.1 mph - N/A   Scattered Clouds
2:55 PM 86.0 °F - 51.8 °F 31% 30.06 in 10.0 mi NNE 9.2 mph - N/A   Scattered Clouds
3:15 PM 86.0 °F 84.2 °F 53.6 °F 33% 30.05 in 10.0 mi ENE 9.2 mph - N/A   Scattered Clouds
3:35 PM 86.0 °F 84.2 °F 53.6 °F 33% 30.03 in 10.0 mi NNE 3.5 mph 16.1 mph N/A   Clear
3:55 PM 86.0 °F 84.2 °F 53.6 °F 33% 30.02 in 10.0 mi ENE 9.2 mph - N/A   Clear
4:15 PM 86.0 °F 84.2 °F 53.6 °F 33% 30.01 in 10.0 mi ENE 10.4 mph - N/A   Clear
4:35 PM 86.0 °F 84.2 °F 53.6 °F 33% 30.01 in 10.0 mi ENE 10.4 mph - N/A   Clear
4:55 PM 86.0 °F 84.2 °F 53.6 °F 33% 30.00 in 10.0 mi East 8.1 mph 16.1 mph N/A   Clear
5:15 PM 82.4 °F 81.4 °F 53.6 °F 37% 29.99 in 10.0 mi ENE 9.2 mph - N/A   Clear
5:35 PM 84.2 °F 83.0 °F 55.4 °F 37% 29.99 in 10.0 mi ENE 8.1 mph 16.1 mph N/A   Clear
5:55 PM 82.4 °F 81.7 °F 55.4 °F 39% 29.99 in 10.0 mi ENE 13.8 mph - N/A   Clear
6:15 PM 82.4 °F 81.7 °F 55.4 °F 39% 29.99 in 10.0 mi East 8.1 mph 17.3 mph N/A   Clear
6:35 PM 80.6 °F 80.5 °F 55.4 °F 42% 29.99 in 10.0 mi East 10.4 mph 19.6 mph N/A   Clear
6:55 PM 78.8 °F - 55.4 °F 44% 29.99 in 10.0 mi East 11.5 mph - N/A   Clear
7:15 PM 77.0 °F - 57.2 °F 50% 29.99 in 10.0 mi East 10.4 mph 18.4 mph N/A   Clear
7:35 PM 77.0 °F - 55.4 °F 47% 29.99 in 10.0 mi East 15.0 mph 18.4 mph N/A   Clear
7:55 PM 73.4 °F - 55.4 °F 53% 30.00 in 10.0 mi East 10.4 mph - N/A   Clear
8:15 PM 73.4 °F - 55.4 °F 53% 30.00 in 10.0 mi East 10.4 mph 16.1 mph N/A   Clear
8:35 PM 71.6 °F - 57.2 °F 60% 30.02 in 10.0 mi ESE 6.9 mph - N/A   Clear
8:55 PM 71.6 °F - 57.2 °F 60% 30.03 in 10.0 mi ESE 8.1 mph - N/A   Clear
9:15 PM 71.6 °F - 57.2 °F 60% 30.04 in 10.0 mi SE 9.2 mph - N/A   Clear
9:35 PM 71.6 °F - 57.2 °F 60% 30.04 in 10.0 mi SE 5.8 mph - N/A   Clear
9:55 PM 69.8 °F - 57.2 °F 64% 30.04 in 10.0 mi ESE 5.8 mph - N/A   Clear
10:15 PM 69.8 °F - 57.2 °F 64% 30.04 in 10.0 mi ESE 5.8 mph - N/A   Clear
10:35 PM 69.8 °F - 57.2 °F 64% 30.04 in 10.0 mi ESE 5.8 mph - N/A   Clear
10:55 PM 68.0 °F - 57.2 °F 68% 30.04 in 10.0 mi SE 3.5 mph - N/A   Clear
11:15 PM 68.0 °F - 59.0 °F 73% 30.04 in 10.0 mi SSE 5.8 mph - N/A   Clear
11:35 PM 68.0 °F - 59.0 °F 73% 30.04 in 10.0 mi SE 5.8 mph - N/A   Clear
11:55 PM 68.0 °F - 59.0 °F 73% 30.03 in 10.0 mi SE 4.6 mph - N/A   Clear